Location: Schoeneck
(50.3760°N, 12.3330°E)
Time: 07:23:02
(UTC+02:00)

ISS - Visible Passes

Search period start: 29 March 2017 00:00
Search period end: 08 April 2017 00:00
Orbit: 399 x 409 km, 51.6° (Epoch: 29 March)

Date Brightness Start Highest point End Pass type
(mag) Time Alt. Az. Time Alt. Az. Time Alt. Az.
29 Mar -3.2 21:42:37 10° WSW 21:45:05 45° SW 21:45:05 45° SW visible
30 Mar -3.4 20:50:26 10° SW 20:53:31 41° SSE 20:55:19 21° E visible
30 Mar -1.6 22:26:38 10° W 22:28:00 23° W 22:28:00 23° W visible
31 Mar -3.9 21:34:13 10° WSW 21:37:30 89° N 21:38:03 59° ENE visible
01 Apr -3.9 20:41:52 10° WSW 20:45:06 69° SSE 20:47:57 13° ENE visible
01 Apr -2.5 22:18:22 10° W 22:20:37 39° WNW 22:20:37 39° WNW visible
02 Apr -3.7 21:25:54 10° W 21:29:10 72° N 21:30:25 34° ENE visible
02 Apr -0.9 23:02:28 10° WNW 23:03:04 14° WNW 23:03:04 14° WNW visible
03 Apr -3.8 20:33:26 10° WSW 20:36:42 84° NNW 20:39:59 10° ENE visible
03 Apr -3.2 22:10:01 10° WNW 22:12:46 57° NW 22:12:46 57° NW visible
04 Apr -3.6 21:17:32 10° W 21:20:48 68° N 21:22:25 27° E visible
04 Apr -1.2 22:54:04 10° WNW 22:55:04 18° W 22:55:04 18° W visible
05 Apr -3.6 20:25:02 10° W 20:28:17 69° N 20:31:34 10° E visible
05 Apr -3.8 22:01:36 10° WNW 22:04:40 78° W 22:04:40 78° W visible
06 Apr -3.8 21:09:07 10° WNW 21:12:23 76° N 21:14:15 23° E visible
06 Apr -1.5 22:45:39 10° W 22:46:54 20° W 22:46:54 20° W visible
07 Apr -3.7 21:53:06 10° WNW 21:56:20 58° SSW 21:56:28 57° S visible
